PRIVATE WETTERSTATION BILLIGHEIM-ALLFELD                       ZURCK
Wetterdaten: Samstag, 14.05.2016
Datum Zeit Temp. A. Temp. A. min Temp. A. max Feuchte A. Luftdruck Regen Wind Richtung Richtung Sonnenschein ET Solar Taupunkt Windchill Windben Empfang
14.05.2016 00:00 12,3 C 12,2 C 12,3 C 91 % 1002,7 hPa 0,0 l/m 0,0 km/h (0 Bft) O-SO 115 0 min 0,000 mm 0 W/m 10,9 C 12,3 C 0,0 km/h (0 Bft) 100 %
14.05.2016 00:10 12,2 C 12,2 C 12,3 C 91 % 1002,8 hPa 0,0 l/m 0,0 km/h (0 Bft) SO 132 0 min 0,000 mm 0 W/m 10,8 C 12,2 C 1,6 km/h (1 Bft) 100 %
14.05.2016 00:20 12,2 C 12,2 C 12,2 C 91 % 1002,9 hPa 0,0 l/m 0,0 km/h (0 Bft) SO 132 0 min 0,000 mm 0 W/m 10,8 C 12,2 C 0,0 km/h (0 Bft) 91 %
14.05.2016 00:30 12,2 C 12,2 C 12,2 C 91 % 1003,0 hPa 0,0 l/m 0,0 km/h (0 Bft) SO 132 0 min 0,000 mm 0 W/m 10,8 C 12,2 C 0,0 km/h (0 Bft) 100 %
14.05.2016 00:40 12,2 C 12,2 C 12,2 C 90 % 1003,0 hPa 0,0 l/m 0,0 km/h (0 Bft) SO 132 0 min 0,000 mm 0 W/m 10,6 C 12,2 C 0,0 km/h (0 Bft) 100 %
14.05.2016 00:50 12,1 C 12,1 C 12,2 C 90 % 1003,0 hPa 0,0 l/m 0,0 km/h (0 Bft) SO 132 0 min 0,000 mm 0 W/m 10,5 C 12,1 C 1,6 km/h (1 Bft) 100 %
14.05.2016 01:00 12,1 C 12,1 C 12,1 C 91 % 1003,1 hPa 0,2 l/m 0,0 km/h (0 Bft) SO 132 0 min 0,000 mm 0 W/m 10,7 C 12,1 C 0,0 km/h (0 Bft) 100 %
14.05.2016 01:10 12,1 C 12,1 C 12,1 C 91 % 1003,0 hPa 0,0 l/m 0,0 km/h (0 Bft) SO 132 0 min 0,000 mm 0 W/m 10,7 C 12,1 C 0,0 km/h (0 Bft) 100 %
14.05.2016 01:20 12,1 C 12,1 C 12,1 C 91 % 1003,2 hPa 0,2 l/m 0,0 km/h (0 Bft) SO 132 0 min 0,000 mm 0 W/m 10,7 C 12,1 C 1,6 km/h (1 Bft) 100 %
14.05.2016 01:30 12,0 C 12,0 C 12,1 C 91 % 1003,1 hPa 0,0 l/m 0,0 km/h (0 Bft) SO 132 0 min 0,000 mm 0 W/m 10,6 C 12,0 C 0,0 km/h (0 Bft) 100 %
14.05.2016 01:40 12,0 C 12,0 C 12,0 C 91 % 1003,0 hPa 0,0 l/m 0,0 km/h (0 Bft) SO 132 0 min 0,000 mm 0 W/m 10,6 C 12,0 C 0,0 km/h (0 Bft) 100 %
14.05.2016 01:50 12,0 C 11,9 C 12,0 C 91 % 1003,0 hPa 0,0 l/m 0,0 km/h (0 Bft) SO 132 0 min 0,000 mm 0 W/m 10,6 C 12,0 C 1,6 km/h (1 Bft) 100 %
14.05.2016 02:00 11,9 C 11,9 C 12,0 C 91 % 1003,0 hPa 0,0 l/m 0,0 km/h (0 Bft) SO 132 0 min 0,000 mm 0 W/m 10,5 C 11,9 C 0,0 km/h (0 Bft) 100 %
14.05.2016 02:10 11,9 C 11,9 C 11,9 C 91 % 1003,0 hPa 0,0 l/m 0,0 km/h (0 Bft) SO 132 0 min 0,000 mm 0 W/m 10,5 C 11,9 C 0,0 km/h (0 Bft) 91 %
14.05.2016 02:20 11,8 C 11,8 C 11,9 C 91 % 1003,1 hPa 0,0 l/m 0,0 km/h (0 Bft) SO 132 0 min 0,000 mm 0 W/m 10,4 C 11,8 C 0,0 km/h (0 Bft) 99 %
14.05.2016 02:30 11,7 C 11,7 C 11,8 C 91 % 1002,9 hPa 0,0 l/m 0,0 km/h (0 Bft) SO 130 0 min 0,000 mm 0 W/m 10,3 C 11,7 C 0,0 km/h (0 Bft) 99 %
14.05.2016 02:40 11,6 C 11,6 C 11,7 C 91 % 1003,0 hPa 0,0 l/m 0,0 km/h (0 Bft) SO 130 0 min 0,000 mm 0 W/m 10,2 C 11,6 C 0,0 km/h (0 Bft) 99 %
14.05.2016 02:50 11,5 C 11,5 C 11,6 C 91 % 1002,9 hPa 0,0 l/m 0,0 km/h (0 Bft) SO 130 0 min 0,000 mm 0 W/m 10,1 C 11,5 C 0,0 km/h (0 Bft) 100 %
14.05.2016 03:00 11,4 C 11,4 C 11,5 C 91 % 1003,0 hPa 0,0 l/m 0,0 km/h (0 Bft) SO 130 0 min 0,000 mm 0 W/m 10,0 C 11,4 C 0,0 km/h (0 Bft) 100 %
14.05.2016 03:10 11,3 C 11,3 C 11,4 C 91 % 1003,0 hPa 0,0 l/m 0,0 km/h (0 Bft) SO 130 0 min 0,000 mm 0 W/m 9,9 C 11,3 C 0,0 km/h (0 Bft) 100 %
14.05.2016 03:20 11,3 C 11,3 C 11,3 C 91 % 1003,1 hPa 0,0 l/m 0,0 km/h (0 Bft) SO 130 0 min 0,000 mm 0 W/m 9,9 C 11,3 C 0,0 km/h (0 Bft) 99 %
14.05.2016 03:30 11,3 C 11,2 C 11,3 C 91 % 1003,1 hPa 0,0 l/m 0,0 km/h (0 Bft) SO 130 0 min 0,000 mm 0 W/m 9,9 C 11,3 C 0,0 km/h (0 Bft) 100 %
14.05.2016 03:40 11,3 C 11,3 C 11,3 C 91 % 1003,2 hPa 0,0 l/m 0,0 km/h (0 Bft) SO 130 0 min 0,000 mm 0 W/m 9,9 C 11,3 C 0,0 km/h (0 Bft) 99 %
14.05.2016 03:50 11,2 C 11,2 C 11,3 C 91 % 1003,3 hPa 0,0 l/m 0,0 km/h (0 Bft) SO 130 0 min 0,000 mm 0 W/m 9,8 C 11,2 C 1,6 km/h (1 Bft) 100 %
14.05.2016 04:00 11,2 C 11,2 C 11,3 C 91 % 1003,4 hPa 0,0 l/m 0,0 km/h (0 Bft) SO 131 0 min 0,000 mm 0 W/m 9,8 C 11,2 C 0,0 km/h (0 Bft) 100 %
14.05.2016 04:10 11,3 C 11,2 C 11,3 C 91 % 1003,4 hPa 0,0 l/m 0,0 km/h (0 Bft) SO 138 0 min 0,000 mm 0 W/m 9,9 C 11,3 C 1,6 km/h (1 Bft) 100 %
14.05.2016 04:20 11,2 C 11,2 C 11,3 C 91 % 1003,4 hPa 0,0 l/m 0,0 km/h (0 Bft) SO 138 0 min 0,000 mm 0 W/m 9,8 C 11,2 C 0,0 km/h (0 Bft) 100 %
14.05.2016 04:30 11,2 C 11,2 C 11,2 C 91 % 1003,5 hPa 0,0 l/m 0,0 km/h (0 Bft) SO 138 0 min 0,000 mm 0 W/m 9,8 C 11,2 C 0,0 km/h (0 Bft) 100 %
14.05.2016 04:40 11,1 C 11,1 C 11,2 C 94 % 1003,5 hPa 0,0 l/m 0,0 km/h (0 Bft) SO 138 0 min 0,000 mm 0 W/m 10,2 C 11,1 C 0,0 km/h (0 Bft) 99 %
14.05.2016 04:50 10,9 C 10,9 C 11,1 C 91 % 1003,5 hPa 0,0 l/m 0,0 km/h (0 Bft) SO 138 0 min 0,000 mm 0 W/m 9,5 C 10,9 C 0,0 km/h (0 Bft) 100 %
14.05.2016 05:00 10,7 C 10,7 C 10,9 C 91 % 1003,7 hPa 0,0 l/m 0,0 km/h (0 Bft) SO 138 0 min 0,000 mm 0 W/m 9,3 C 10,7 C 0,0 km/h (0 Bft) 99 %
14.05.2016 05:10 10,6 C 10,6 C 10,7 C 91 % 1003,7 hPa 0,0 l/m 0,0 km/h (0 Bft) SO 138 0 min 0,000 mm 0 W/m 9,2 C 10,6 C 0,0 km/h (0 Bft) 100 %
14.05.2016 05:20 10,6 C 10,6 C 10,6 C 91 % 1003,9 hPa 0,0 l/m 0,0 km/h (0 Bft) SO 138 0 min 0,000 mm 0 W/m 9,2 C 10,6 C 0,0 km/h (0 Bft) 100 %
14.05.2016 05:30 10,6 C 10,5 C 10,6 C 91 % 1003,9 hPa 0,0 l/m 0,0 km/h (0 Bft) SO 138 0 min 0,000 mm 0 W/m 9,2 C 10,6 C 0,0 km/h (0 Bft) 99 %
14.05.2016 05:40 10,4 C 10,4 C 10,6 C 91 % 1003,9 hPa 0,0 l/m 0,0 km/h (0 Bft) SO 138 0 min 0,000 mm 0 W/m 9,0 C 10,4 C 0,0 km/h (0 Bft) 100 %
14.05.2016 05:50 10,3 C 10,3 C 10,4 C 91 % 1003,9 hPa 0,0 l/m 0,0 km/h (0 Bft) SO 138 0 min 0,000 mm 5 W/m 8,9 C 10,3 C 0,0 km/h (0 Bft) 100 %
14.05.2016 06:00 10,1 C 10,1 C 10,3 C 91 % 1004,1 hPa 0,0 l/m 0,0 km/h (0 Bft) SO 138 0 min 0,000 mm 7 W/m 8,7 C 10,1 C 0,0 km/h (0 Bft) 99 %
14.05.2016 06:10 9,9 C 9,9 C 10,1 C 91 % 1004,1 hPa 0,0 l/m 0,0 km/h (0 Bft) SO 138 0 min 0,000 mm 9 W/m 8,5 C 9,9 C 0,0 km/h (0 Bft) 99 %
14.05.2016 06:20 9,8 C 9,8 C 9,9 C 91 % 1004,1 hPa 0,0 l/m 0,0 km/h (0 Bft) O-SO 107 0 min 0,000 mm 16 W/m 8,4 C 9,8 C 1,6 km/h (1 Bft) 100 %
14.05.2016 06:30 9,8 C 9,8 C 9,8 C 91 % 1004,2 hPa 0,0 l/m 0,0 km/h (0 Bft) O-SO 107 0 min 0,000 mm 19 W/m 8,4 C 9,8 C 0,0 km/h (0 Bft) 99 %
14.05.2016 06:40 9,7 C 9,7 C 9,8 C 91 % 1004,4 hPa 0,0 l/m 0,0 km/h (0 Bft) O-SO 107 0 min 0,000 mm 25 W/m 8,3 C 9,7 C 0,0 km/h (0 Bft) 100 %
14.05.2016 06:50 9,7 C 9,7 C 9,7 C 91 % 1004,5 hPa 0,0 l/m 0,0 km/h (0 Bft) O-SO 105 0 min 0,000 mm 28 W/m 8,3 C 9,7 C 1,6 km/h (1 Bft) 91 %
14.05.2016 07:00 9,6 C 9,6 C 9,7 C 91 % 1004,6 hPa 0,0 l/m 0,2 km/h (0 Bft) N-NO 13 0 min 0,000 mm 32 W/m 8,2 C 9,6 C 6,4 km/h (2 Bft) 100 %
14.05.2016 07:10 9,6 C 9,6 C 9,6 C 91 % 1004,7 hPa 0,0 l/m 0,3 km/h (0 Bft) N 5 0 min 0,000 mm 28 W/m 8,2 C 9,6 C 4,8 km/h (1 Bft) 100 %
14.05.2016 07:20 9,6 C 9,6 C 9,6 C 91 % 1004,9 hPa 0,0 l/m 0,0 km/h (0 Bft) N 355 0 min 0,000 mm 40 W/m 8,2 C 9,6 C 0,0 km/h (0 Bft) 99 %
14.05.2016 07:30 9,6 C 9,6 C 9,6 C 91 % 1004,9 hPa 0,0 l/m 0,1 km/h (0 Bft) N-NW 342 0 min 0,000 mm 30 W/m 8,2 C 9,6 C 4,8 km/h (1 Bft) 100 %
14.05.2016 07:40 9,6 C 9,6 C 9,6 C 91 % 1004,9 hPa 0,0 l/m 0,0 km/h (0 Bft) N-NW 342 0 min 0,000 mm 32 W/m 8,2 C 9,6 C 1,6 km/h (1 Bft) 99 %
14.05.2016 07:50 9,7 C 9,6 C 9,7 C 91 % 1005,1 hPa 0,0 l/m 0,6 km/h (0 Bft) N-NW 329 0 min 0,000 mm 39 W/m 8,3 C 9,7 C 8,0 km/h (2 Bft) 100 %
14.05.2016 08:00 9,8 C 9,7 C 9,8 C 91 % 1005,1 hPa 0,0 l/m 1,1 km/h (1 Bft) N-NW 348 0 min 0,025 mm 47 W/m 8,4 C 9,8 C 9,7 km/h (2 Bft) 100 %
14.05.2016 08:10 9,7 C 9,7 C 9,8 C 91 % 1005,3 hPa 0,0 l/m 2,0 km/h (1 Bft) NW 326 0 min 0,000 mm 88 W/m 8,3 C 9,7 C 12,9 km/h (3 Bft) 100 %
14.05.2016 08:20 9,8 C 9,7 C 9,8 C 91 % 1005,4 hPa 0,0 l/m 1,3 km/h (1 Bft) NW 325 10 min 0,000 mm 172 W/m 8,4 C 9,8 C 11,3 km/h (2 Bft) 100 %
14.05.2016 08:30 10,3 C 9,8 C 10,3 C 91 % 1005,6 hPa 0,0 l/m 3,1 km/h (1 Bft) N-NW 344 10 min 0,000 mm 408 W/m 8,9 C 10,3 C 9,7 km/h (2 Bft) 99 %
14.05.2016 08:40 10,8 C 10,3 C 10,9 C 91 % 1005,7 hPa 0,0 l/m 8,0 km/h (2 Bft) N-NW 348 10 min 0,000 mm 197 W/m 9,4 C 9,7 C 22,5 km/h (4 Bft) 100 %
14.05.2016 08:50 11,1 C 10,8 C 11,1 C 91 % 1005,9 hPa 0,0 l/m 10,0 km/h (2 Bft) N-NW 334 10 min 0,000 mm 311 W/m 9,7 C 8,8 C 29,0 km/h (5 Bft) 100 %
14.05.2016 09:00 11,7 C 11,1 C 11,7 C 90 % 1005,9 hPa 0,0 l/m 9,0 km/h (2 Bft) N-NW 338 10 min 0,127 mm 480 W/m 10,1 C 10,0 C 22,5 km/h (4 Bft) 100 %
14.05.2016 09:10 12,4 C 11,7 C 12,4 C 87 % 1006,0 hPa 0,0 l/m 6,6 km/h (2 Bft) NW 318 10 min 0,000 mm 381 W/m 10,3 C 12,3 C 19,3 km/h (3 Bft) 100 %
14.05.2016 09:20 12,5 C 12,3 C 12,6 C 82 % 1006,1 hPa 0,0 l/m 2,3 km/h (1 Bft) NW 314 10 min 0,000 mm 156 W/m 9,5 C 12,5 C 11,3 km/h (2 Bft) 100 %
14.05.2016 09:30 12,2 C 12,2 C 12,5 C 83 % 1006,4 hPa 0,0 l/m 2,7 km/h (1 Bft) NW 315 0 min 0,000 mm 127 W/m 9,4 C 12,2 C 11,3 km/h (2 Bft) 100 %
14.05.2016 09:40 12,1 C 12,1 C 12,2 C 83 % 1006,5 hPa 0,0 l/m 1,5 km/h (1 Bft) NW 309 10 min 0,000 mm 260 W/m 9,3 C 12,1 C 9,7 km/h (2 Bft) 100 %
14.05.2016 09:50 12,3 C 12,1 C 12,3 C 84 % 1006,6 hPa 0,0 l/m 3,2 km/h (1 Bft) NW 319 10 min 0,000 mm 513 W/m 9,7 C 12,3 C 11,3 km/h (2 Bft) 100 %
14.05.2016 10:00 13,3 C 12,3 C 13,3 C 81 % 1006,5 hPa 0,0 l/m 3,0 km/h (1 Bft) NW 307 10 min 0,153 mm 359 W/m 10,1 C 13,3 C 14,5 km/h (3 Bft) 100 %
14.05.2016 10:10 13,6 C 13,3 C 13,6 C 77 % 1006,7 hPa 0,0 l/m 0,9 km/h (0 Bft) N-NO 17 10 min 0,000 mm 592 W/m 9,6 C 13,6 C 9,7 km/h (2 Bft) 100 %
14.05.2016 10:20 13,7 C 13,6 C 13,7 C 80 % 1006,7 hPa 0,0 l/m 1,1 km/h (1 Bft) W-NW 302 10 min 0,000 mm 691 W/m 10,3 C 13,7 C 11,3 km/h (2 Bft) 100 %
14.05.2016 10:30 14,1 C 13,7 C 14,1 C 75 % 1006,9 hPa 0,0 l/m 1,6 km/h (1 Bft) W-NW 303 10 min 0,000 mm 283 W/m 9,7 C 14,1 C 9,7 km/h (2 Bft) 99 %
14.05.2016 10:40 14,2 C 14,1 C 14,2 C 74 % 1007,0 hPa 0,0 l/m 3,9 km/h (1 Bft) NW 321 10 min 0,000 mm 759 W/m 9,6 C 14,2 C 12,9 km/h (3 Bft) 100 %
14.05.2016 10:50 14,4 C 14,2 C 14,4 C 74 % 1007,2 hPa 0,0 l/m 2,8 km/h (1 Bft) NW 324 10 min 0,000 mm 186 W/m 9,8 C 14,4 C 11,3 km/h (2 Bft) 100 %
14.05.2016 11:00 14,0 C 14,0 C 14,4 C 75 % 1007,2 hPa 0,0 l/m 2,1 km/h (1 Bft) W-NW 301 10 min 0,203 mm 158 W/m 9,6 C 14,0 C 9,7 km/h (2 Bft) 100 %
14.05.2016 11:10 13,5 C 13,5 C 14,0 C 75 % 1007,5 hPa 0,0 l/m 8,1 km/h (2 Bft) W-NW 303 10 min 0,000 mm 163 W/m 9,2 C 12,5 C 19,3 km/h (3 Bft) 91 %
14.05.2016 11:20 13,1 C 13,1 C 13,5 C 78 % 1007,7 hPa 0,0 l/m 6,7 km/h (2 Bft) NW 314 10 min 0,000 mm 200 W/m 9,4 C 12,9 C 19,3 km/h (3 Bft) 100 %
14.05.2016 11:30 13,0 C 12,9 C 13,1 C 78 % 1007,8 hPa 0,0 l/m 11,6 km/h (2 Bft) NW 315 10 min 0,000 mm 410 W/m 9,3 C 10,1 C 22,5 km/h (4 Bft) 99 %
14.05.2016 11:40 13,9 C 13,0 C 13,9 C 78 % 1007,8 hPa 0,0 l/m 8,7 km/h (2 Bft) W-NW 285 10 min 0,000 mm 976 W/m 10,1 C 12,6 C 19,3 km/h (3 Bft) 100 %
14.05.2016 11:50 14,3 C 13,9 C 14,3 C 74 % 1008,2 hPa 0,0 l/m 11,7 km/h (2 Bft) W 279 10 min 0,000 mm 359 W/m 9,7 C 11,6 C 22,5 km/h (4 Bft) 100 %
14.05.2016 12:00 13,8 C 13,8 C 14,3 C 74 % 1008,2 hPa 0,0 l/m 9,5 km/h (2 Bft) W-NW 294 10 min 0,229 mm 285 W/m 9,2 C 12,0 C 19,3 km/h (3 Bft) 100 %
14.05.2016 12:10 13,6 C 13,6 C 13,8 C 75 % 1008,4 hPa 0,0 l/m 13,7 km/h (3 Bft) NW 314 10 min 0,000 mm 592 W/m 9,3 C 10,0 C 25,7 km/h (4 Bft) 100 %
14.05.2016 12:20 13,7 C 13,6 C 13,7 C 75 % 1008,4 hPa 0,0 l/m 16,5 km/h (3 Bft) NW 310 10 min 0,000 mm 868 W/m 9,3 C 9,1 C 30,6 km/h (5 Bft) 100 %
14.05.2016 12:30 13,5 C 13,5 C 13,8 C 72 % 1008,7 hPa 0,0 l/m 12,8 km/h (3 Bft) NW 322 10 min 0,000 mm 406 W/m 8,6 C 10,2 C 27,4 km/h (4 Bft) 100 %
14.05.2016 12:40 13,3 C 13,3 C 13,5 C 72 % 1008,8 hPa 0,0 l/m 11,4 km/h (2 Bft) NW 324 10 min 0,000 mm 334 W/m 8,4 C 10,6 C 24,1 km/h (4 Bft) 100 %
14.05.2016 12:50 13,4 C 13,3 C 13,4 C 74 % 1008,7 hPa 0,0 l/m 10,3 km/h (2 Bft) NW 311 10 min 0,000 mm 459 W/m 8,9 C 11,2 C 24,1 km/h (4 Bft) 100 %
14.05.2016 13:00 13,7 C 13,4 C 13,7 C 73 % 1008,8 hPa 0,0 l/m 10,0 km/h (2 Bft) W-NW 288 10 min 0,304 mm 536 W/m 8,9 C 11,7 C 25,7 km/h (4 Bft) 100 %
14.05.2016 13:10 13,9 C 13,7 C 14,0 C 70 % 1008,8 hPa 0,0 l/m 13,4 km/h (3 Bft) W-NW 302 10 min 0,000 mm 348 W/m 8,5 C 10,4 C 24,1 km/h (4 Bft) 100 %
14.05.2016 13:20 13,6 C 13,6 C 13,9 C 71 % 1008,8 hPa 0,0 l/m 10,9 km/h (2 Bft) NW 311 10 min 0,000 mm 214 W/m 8,4 C 11,1 C 22,5 km/h (4 Bft) 99 %
14.05.2016 13:30 13,1 C 13,1 C 13,6 C 72 % 1008,9 hPa 0,0 l/m 9,1 km/h (2 Bft) NW 317 10 min 0,000 mm 301 W/m 8,2 C 11,5 C 19,3 km/h (3 Bft) 99 %
14.05.2016 13:40 13,0 C 13,0 C 13,2 C 72 % 1008,9 hPa 0,0 l/m 5,5 km/h (1 Bft) N 350 10 min 0,000 mm 287 W/m 8,1 C 13,0 C 17,7 km/h (3 Bft) 97 %
14.05.2016 13:50 12,8 C 12,8 C 13,0 C 72 % 1008,9 hPa 0,0 l/m 8,2 km/h (2 Bft) NW 313 10 min 0,000 mm 325 W/m 7,9 C 11,7 C 24,1 km/h (4 Bft) 97 %
14.05.2016 14:00 12,8 C 12,8 C 12,8 C 72 % 1009,0 hPa 0,0 l/m 5,9 km/h (2 Bft) NW 322 10 min 0,204 mm 271 W/m 7,9 C 12,8 C 20,9 km/h (4 Bft) 98 %
14.05.2016 14:10 12,7 C 12,7 C 12,8 C 72 % 1009,0 hPa 0,0 l/m 8,6 km/h (2 Bft) NW 319 10 min 0,000 mm 272 W/m 7,8 C 11,3 C 19,3 km/h (3 Bft) 97 %
14.05.2016 14:20 12,9 C 12,7 C 12,9 C 70 % 1009,1 hPa 0,0 l/m 7,2 km/h (2 Bft) NW 305 10 min 0,000 mm 629 W/m 7,6 C 12,4 C 19,3 km/h (3 Bft) 97 %
14.05.2016 14:30 13,2 C 12,9 C 13,2 C 68 % 1009,1 hPa 0,0 l/m 7,5 km/h (2 Bft) NW 304 10 min 0,000 mm 332 W/m 7,4 C 12,5 C 19,3 km/h (3 Bft) 98 %
14.05.2016 14:40 13,2 C 13,1 C 13,2 C 69 % 1009,1 hPa 0,0 l/m 4,5 km/h (1 Bft) W-NW 297 10 min 0,000 mm 260 W/m 7,6 C 13,2 C 17,7 km/h (3 Bft) 97 %
14.05.2016 14:50 13,1 C 13,1 C 13,3 C 68 % 1009,1 hPa 0,0 l/m 7,4 km/h (2 Bft) W-SW 257 10 min 0,000 mm 221 W/m 7,3 C 12,5 C 16,1 km/h (3 Bft) 98 %
14.05.2016 15:00 13,0 C 12,9 C 13,1 C 70 % 1009,3 hPa 0,0 l/m 4,5 km/h (1 Bft) NW 313 10 min 0,177 mm 241 W/m 7,7 C 13,0 C 17,7 km/h (3 Bft) 97 %
14.05.2016 15:10 12,8 C 12,8 C 13,0 C 71 % 1009,4 hPa 0,0 l/m 11,7 km/h (2 Bft) NW 309 10 min 0,000 mm 171 W/m 7,7 C 9,9 C 22,5 km/h (4 Bft) 97 %
14.05.2016 15:20 12,5 C 12,5 C 12,8 C 72 % 1009,4 hPa 0,0 l/m 7,8 km/h (2 Bft) NW 317 10 min 0,000 mm 278 W/m 7,6 C 11,6 C 19,3 km/h (3 Bft) 97 %
14.05.2016 15:30 12,6 C 12,5 C 12,6 C 72 % 1009,5 hPa 0,0 l/m 6,4 km/h (2 Bft) NW 321 10 min 0,000 mm 193 W/m 7,7 C 12,6 C 20,9 km/h (4 Bft) 98 %
14.05.2016 15:40 12,5 C 12,5 C 12,6 C 72 % 1009,4 hPa 0,0 l/m 6,9 km/h (2 Bft) NW 311 10 min 0,000 mm 165 W/m 7,6 C 12,2 C 20,9 km/h (4 Bft) 97 %
14.05.2016 15:50 12,3 C 12,3 C 12,5 C 69 % 1009,5 hPa 0,0 l/m 11,2 km/h (2 Bft) W-NW 287 0 min 0,000 mm 114 W/m 6,8 C 9,5 C 27,4 km/h (4 Bft) 98 %
14.05.2016 16:00 12,0 C 12,0 C 12,3 C 70 % 1009,7 hPa 0,0 l/m 10,3 km/h (2 Bft) NW 321 10 min 0,127 mm 206 W/m 6,7 C 9,6 C 22,5 km/h (4 Bft) 97 %
14.05.2016 16:10 12,3 C 12,0 C 12,3 C 68 % 1009,7 hPa 0,0 l/m 8,1 km/h (2 Bft) W-NW 299 10 min 0,000 mm 339 W/m 6,6 C 11,2 C 20,9 km/h (4 Bft) 97 %
14.05.2016 16:20 12,6 C 12,3 C 12,6 C 65 % 1009,9 hPa 0,0 l/m 9,0 km/h (2 Bft) W-NW 290 0 min 0,000 mm 120 W/m 6,2 C 11,0 C 22,5 km/h (4 Bft) 98 %
14.05.2016 16:30 12,3 C 12,3 C 12,6 C 66 % 1009,9 hPa 0,0 l/m 7,2 km/h (2 Bft) NW 318 0 min 0,000 mm 120 W/m 6,1 C 11,8 C 19,3 km/h (3 Bft) 97 %
14.05.2016 16:40 12,3 C 12,3 C 12,3 C 66 % 1009,9 hPa 0,0 l/m 5,3 km/h (1 Bft) NW 317 10 min 0,000 mm 218 W/m 6,1 C 12,3 C 19,3 km/h (3 Bft) 97 %
14.05.2016 16:50 12,3 C 12,3 C 12,3 C 65 % 1010,0 hPa 0,0 l/m 5,0 km/h (1 Bft) N-NW 329 0 min 0,000 mm 107 W/m 5,9 C 12,3 C 17,7 km/h (3 Bft) 98 %
14.05.2016 17:00 12,2 C 12,2 C 12,3 C 62 % 1010,0 hPa 0,0 l/m 7,5 km/h (2 Bft) NW 311 10 min 0,127 mm 155 W/m 5,1 C 11,5 C 19,3 km/h (3 Bft) 97 %
14.05.2016 17:10 12,2 C 12,1 C 12,2 C 62 % 1010,1 hPa 0,0 l/m 6,6 km/h (2 Bft) NW 320 10 min 0,000 mm 155 W/m 5,1 C 12,1 C 20,9 km/h (4 Bft) 90 %
14.05.2016 17:20 12,6 C 12,2 C 12,6 C 58 % 1010,0 hPa 0,0 l/m 11,5 km/h (2 Bft) NW 312 0 min 0,000 mm 135 W/m 4,6 C 9,7 C 24,1 km/h (4 Bft) 96 %
14.05.2016 17:30 13,0 C 12,6 C 13,0 C 59 % 1010,2 hPa 0,0 l/m 9,6 km/h (2 Bft) W-NW 301 0 min 0,000 mm 134 W/m 5,2 C 11,1 C 20,9 km/h (4 Bft) 98 %
14.05.2016 17:40 12,6 C 12,6 C 13,0 C 56 % 1010,2 hPa 0,0 l/m 13,2 km/h (3 Bft) NW 324 0 min 0,000 mm 109 W/m 4,1 C 9,0 C 32,2 km/h (5 Bft) 97 %
14.05.2016 17:50 12,4 C 12,3 C 12,6 C 60 % 1010,4 hPa 0,0 l/m 11,9 km/h (2 Bft) W-NW 302 0 min 0,000 mm 130 W/m 4,9 C 9,3 C 24,1 km/h (4 Bft) 97 %
14.05.2016 18:00 12,4 C 12,4 C 12,6 C 57 % 1010,5 hPa 0,0 l/m 11,8 km/h (2 Bft) NW 326 0 min 0,127 mm 93 W/m 4,1 C 9,4 C 27,4 km/h (4 Bft) 97 %
14.05.2016 18:10 11,9 C 11,9 C 12,4 C 58 % 1010,5 hPa 0,0 l/m 11,6 km/h (2 Bft) N-NW 345 0 min 0,000 mm 130 W/m 3,9 C 8,9 C 27,4 km/h (4 Bft) 97 %
14.05.2016 18:20 12,1 C 11,9 C 12,1 C 61 % 1010,6 hPa 0,0 l/m 9,3 km/h (2 Bft) NW 321 0 min 0,000 mm 144 W/m 4,8 C 10,3 C 24,1 km/h (4 Bft) 98 %
14.05.2016 18:30 12,6 C 12,1 C 12,6 C 59 % 1010,7 hPa 0,0 l/m 11,0 km/h (2 Bft) N-NW 331 0 min 0,000 mm 139 W/m 4,8 C 10,0 C 29,0 km/h (5 Bft) 98 %
14.05.2016 18:40 12,6 C 12,6 C 12,7 C 57 % 1010,9 hPa 0,0 l/m 12,1 km/h (2 Bft) W-NW 296 0 min 0,000 mm 58 W/m 4,3 C 9,5 C 30,6 km/h (5 Bft) 98 %
14.05.2016 18:50 12,3 C 12,3 C 12,7 C 54 % 1011,0 hPa 0,0 l/m 13,3 km/h (3 Bft) W-NW 286 0 min 0,000 mm 60 W/m 3,3 C 8,6 C 25,7 km/h (4 Bft) 98 %
14.05.2016 19:00 12,0 C 12,0 C 12,3 C 57 % 1011,1 hPa 0,0 l/m 14,5 km/h (3 Bft) NW 312 0 min 0,102 mm 67 W/m 3,8 C 7,8 C 32,2 km/h (5 Bft) 97 %
14.05.2016 19:10 11,8 C 11,8 C 12,0 C 59 % 1011,1 hPa 0,0 l/m 13,9 km/h (3 Bft) N 355 0 min 0,000 mm 83 W/m 4,1 C 7,8 C 32,2 km/h (5 Bft) 97 %
14.05.2016 19:20 11,4 C 11,4 C 11,8 C 58 % 1011,3 hPa 0,0 l/m 12,1 km/h (2 Bft) NW 313 0 min 0,000 mm 23 W/m 3,4 C 8,1 C 27,4 km/h (4 Bft) 97 %
14.05.2016 19:30 11,1 C 11,1 C 11,4 C 58 % 1011,3 hPa 0,0 l/m 10,0 km/h (2 Bft) N-NW 333 0 min 0,000 mm 18 W/m 3,2 C 8,8 C 30,6 km/h (5 Bft) 98 %
14.05.2016 19:40 10,8 C 10,8 C 11,1 C 61 % 1011,3 hPa 0,0 l/m 8,0 km/h (2 Bft) N 355 0 min 0,000 mm 14 W/m 3,6 C 9,7 C 29,0 km/h (5 Bft) 97 %
14.05.2016 19:50 10,5 C 10,5 C 10,8 C 61 % 1011,6 hPa 0,0 l/m 9,2 km/h (2 Bft) N-NW 336 0 min 0,000 mm 7 W/m 3,3 C 8,6 C 27,4 km/h (4 Bft) 97 %
14.05.2016 20:00 10,2 C 10,2 C 10,5 C 62 % 1011,8 hPa 0,0 l/m 9,8 km/h (2 Bft) NW 323 0 min 0,076 mm 0 W/m 3,3 C 7,9 C 33,8 km/h (5 Bft) 98 %
14.05.2016 20:10 10,1 C 10,1 C 10,2 C 63 % 1011,8 hPa 0,0 l/m 7,4 km/h (2 Bft) NW 317 0 min 0,000 mm 0 W/m 3,4 C 9,4 C 24,1 km/h (4 Bft) 99 %
14.05.2016 20:20 9,8 C 9,8 C 10,1 C 64 % 1011,9 hPa 0,0 l/m 4,4 km/h (1 Bft) NW 313 0 min 0,000 mm 0 W/m 3,3 C 9,8 C 22,5 km/h (4 Bft) 100 %
14.05.2016 20:30 9,6 C 9,6 C 9,8 C 63 % 1012,0 hPa 0,0 l/m 5,2 km/h (1 Bft) NW 307 0 min 0,000 mm 0 W/m 2,9 C 9,6 C 20,9 km/h (4 Bft) 100 %
14.05.2016 20:40 9,3 C 9,3 C 9,6 C 66 % 1012,1 hPa 0,0 l/m 3,0 km/h (1 Bft) NW 318 0 min 0,000 mm 0 W/m 3,3 C 9,3 C 11,3 km/h (2 Bft) 100 %
14.05.2016 20:50 9,1 C 9,1 C 9,3 C 66 % 1012,2 hPa 0,0 l/m 1,3 km/h (1 Bft) NW 314 0 min 0,000 mm 0 W/m 3,1 C 9,1 C 11,3 km/h (2 Bft) 100 %
14.05.2016 21:00 8,8 C 8,8 C 9,1 C 68 % 1012,2 hPa 0,0 l/m 1,4 km/h (1 Bft) N-NW 328 0 min 0,026 mm 0 W/m 3,2 C 8,8 C 16,1 km/h (3 Bft) 91 %
14.05.2016 21:10 8,5 C 8,5 C 8,8 C 67 % 1012,4 hPa 0,0 l/m 1,4 km/h (1 Bft) N-NW 329 0 min 0,000 mm 0 W/m 2,7 C 8,5 C 11,3 km/h (2 Bft) 100 %
14.05.2016 21:20 8,2 C 8,2 C 8,5 C 69 % 1012,6 hPa 0,0 l/m 1,8 km/h (1 Bft) N-NW 346 0 min 0,000 mm 0 W/m 2,9 C 8,2 C 11,3 km/h (2 Bft) 100 %
14.05.2016 21:30 7,9 C 7,9 C 8,2 C 69 % 1012,8 hPa 0,0 l/m 0,9 km/h (0 Bft) N-NW 335 0 min 0,000 mm 0 W/m 2,6 C 7,9 C 8,0 km/h (2 Bft) 100 %
14.05.2016 21:40 7,7 C 7,7 C 7,9 C 70 % 1013,0 hPa 0,0 l/m 0,5 km/h (0 Bft) N-NW 337 0 min 0,000 mm 0 W/m 2,6 C 7,7 C 8,0 km/h (2 Bft) 100 %
14.05.2016 21:50 7,4 C 7,4 C 7,7 C 72 % 1013,1 hPa 0,0 l/m 0,4 km/h (0 Bft) N-NW 339 0 min 0,000 mm 0 W/m 2,7 C 7,4 C 6,4 km/h (2 Bft) 100 %
14.05.2016 22:00 7,2 C 7,2 C 7,4 C 70 % 1013,2 hPa 0,0 l/m 0,1 km/h (0 Bft) N-NW 336 0 min 0,025 mm 0 W/m 2,1 C 7,2 C 3,2 km/h (1 Bft) 100 %
14.05.2016 22:10 7,0 C 7,0 C 7,2 C 70 % 1013,3 hPa 0,0 l/m 0,0 km/h (0 Bft) N-NW 336 0 min 0,000 mm 0 W/m 1,9 C 7,0 C 0,0 km/h (0 Bft) 100 %
14.05.2016 22:20 6,9 C 6,9 C 7,0 C 72 % 1013,4 hPa 0,0 l/m 0,1 km/h (0 Bft) N-NW 336 0 min 0,000 mm 0 W/m 2,2 C 6,9 C 4,8 km/h (1 Bft) 100 %
14.05.2016 22:30 6,8 C 6,8 C 6,9 C 72 % 1013,5 hPa 0,0 l/m 0,0 km/h (0 Bft) N-NW 336 0 min 0,000 mm 0 W/m 2,1 C 6,8 C 1,6 km/h (1 Bft) 100 %
14.05.2016 22:40 6,8 C 6,8 C 6,8 C 73 % 1013,8 hPa 0,0 l/m 0,1 km/h (0 Bft) N-NW 336 0 min 0,000 mm 0 W/m 2,3 C 6,8 C 3,2 km/h (1 Bft) 100 %
14.05.2016 22:50 6,8 C 6,8 C 6,8 C 73 % 1013,7 hPa 0,0 l/m 0,0 km/h (0 Bft) N-NW 330 0 min 0,000 mm 0 W/m 2,3 C 6,8 C 0,0 km/h (0 Bft) 100 %
14.05.2016 23:00 6,8 C 6,8 C 6,8 C 73 % 1013,9 hPa 0,0 l/m 0,6 km/h (0 Bft) N-NW 331 0 min 0,025 mm 0 W/m 2,3 C 6,8 C 6,4 km/h (2 Bft) 100 %
14.05.2016 23:10 6,7 C 6,7 C 6,8 C 74 % 1014,1 hPa 0,0 l/m 0,6 km/h (0 Bft) N-NW 327 0 min 0,000 mm 0 W/m 2,4 C 6,7 C 4,8 km/h (1 Bft) 100 %
14.05.2016 23:20 6,8 C 6,7 C 6,8 C 75 % 1014,1 hPa 0,0 l/m 0,2 km/h (0 Bft) N-NW 327 0 min 0,000 mm 0 W/m 2,7 C 6,8 C 4,8 km/h (1 Bft) 100 %
14.05.2016 23:30 6,8 C 6,8 C 6,8 C 79 % 1014,1 hPa 0,0 l/m 0,0 km/h (0 Bft) N-NW 327 0 min 0,000 mm 0 W/m 3,4 C 6,8 C 0,0 km/h (0 Bft) 100 %
14.05.2016 23:40 6,8 C 6,8 C 6,8 C 74 % 1014,2 hPa 0,0 l/m 0,1 km/h (0 Bft) N-NW 327 0 min 0,000 mm 0 W/m 2,5 C 6,8 C 3,2 km/h (1 Bft) 100 %
14.05.2016 23:50 6,9 C 6,8 C 6,9 C 74 % 1014,3 hPa 0,0 l/m 0,2 km/h (0 Bft) N-NW 327 0 min 0,000 mm 0 W/m 2,6 C 6,9 C 3,2 km/h (1 Bft) 100 %
_ Min-Zeit 23:10 23:10 22:40 18:50 00:00 - 00:00 - - - - - 22:10 23:10 00:00 17:10
Minimum _ 6,7 C 6,7 C 6,8 C 54 % 1002,7 hPa - 0,0 km/h (0 Bft) - - - - - 1,9 C 6,7 C 0,0 km/h (0 Bft) 90 %
_ Max-Zeit 10:50 10:50 10:50 04:40 23:50 01:00 12:20 - - 08:20 13:00 11:40 00:00 10:50 20:00 00:00
Maximum _ 14,4 C 14,2 C 14,4 C 94 % 1014,3 hPa 0,2 l/m 16,5 km/h
NW (3 Bft)
- - 10 min 0,304 mm 976 W/m 10,9 C 14,4 C 33,8 km/h
NW (5 Bft)
100 %
Durchschnitt _ 11,3 C 11,2 C 11,4 C 78 % 1007,7 hPa #0,4 l/m 4,3 km/h (1 Bft) NW - #8:10 h #2,057 mm 229 W/m 7,4 C 10,5 C 12,2 km/h (2 Bft) 99 %
PRIVATE WETTERSTATION BILLIGHEIM-ALLFELD - www.neckar-odenwald-wetter.de - Holger Sonntag